• MPC Preparation (Info)

  • MPEC 2019-W133 : 2019 WX1

    The following Minor Planet Electronic Circular may be linked-to from your own Web pages, but must not otherwise be redistributed electronically.

    A form allowing access to any MPEC is at the bottom of this page.


    Read MPEC 2019-W132 Read MPEC 2019-W134


    M.P.E.C. 2019-W133                            Issued 2019 November 25, 21:17 UT
    
         The Minor Planet Electronic Circulars contain information on unusual
             minor planets and routine data on comets.  They are published
        on behalf of Division F of the International Astronomical Union by the
              Minor Planet Center, Smithsonian Astrophysical Observatory,
                              Cambridge, MA 02138, U.S.A.
    
                 Prepared using the Tamkin Foundation Computer Network
    
                                  MPC@CFA.HARVARD.EDU
                URL https://www.minorplanetcenter.net/    ISSN 1523-6714
    
                                    2019 WX1                                 
    
    
    Observations:
         K19W01X  C2019 11 23.21289523 37 38.473-08 51 49.18         21.3 GVEW133F51
         K19W01X  C2019 11 23.23333223 37 52.800-08 50 08.93         21.1 GVEW133F51
         K19W01X  C2019 11 23.24354823 37 59.980-08 49 18.50         20.8 GVEW133F51
         K19W01X* C2019 11 25.25902900 00 15.506-06 13 44.24         20.88wUEW133F51
         K19W01X  C2019 11 25.28378400 00 30.228-06 11 56.65         20.48wUEW133F51
         K19W01X  C2019 11 25.29618300 00 37.588-06 11 02.68         21.29wUEW133F51
         K19W01X KC2019 11 25.49921200 02 39.33 -05 55 44.3          20.5 GVEW133474
         K19W01X KC2019 11 25.50161400 02 40.75 -05 55 33.7          20.8 GVEW133474
         K19W01X KC2019 11 25.50409500 02 42.22 -05 55 23.4          20.8 GVEW133474
         K19W01X KC2019 11 25.50649600 02 43.71 -05 55 13.1          20.6 GVEW133474
         K19W01X pC2019 11 25.71565300 04 50.34 -05 41 19.5          20.7 GVEW133L01
         K19W01X KC2019 11 25.71608900 04 50.62 -05 41 17.5          20.8 GVEW133L01
         K19W01X KC2019 11 25.72400700 04 55.17 -05 40 44.8          20.7 GVEW133L01
         K19W01X pC2019 11 25.72841800 04 57.73 -05 40 26.0          21.6 GVEW133L01
         K19W01X KC2019 11 25.80138 00 05 39.82 -05 35 18.5          20.6 GVEW133104
         K19W01X KC2019 11 25.80884 00 05 44.09 -05 34 47.4          20.6 GVEW133104
         K19W01X KC2019 11 25.82189 00 05 51.54 -05 33 52.2          20.5 GVEW133104
    
    Observer details:
    104 San Marcello Pistoiese.  Observers P. Bacci, M. Maestripieri.  Measurers P. 
       Bacci, L. Tesi, G. Fagioli.  0.60-m reflector + CCD.
    474 Mount John Observatory, Lake Tekapo.  Observers A. C. Gilmore, P. M. 
       Kilmartin.  Measurer P. M. Kilmartin.  1.0-m f/7.7 reflector + CCD.
    F51 Pan-STARRS 1, Haleakala.  Observers J. Bulger, K. Chambers, T. Lowe, A. 
       Schultz, M. Willman.  Measurers S. Chastel, M. Huber, Y. Ramanjooloo, R. 
       Wainscoat, R. Weryk, K. Chambers, T. de Boer, L. Denneau, J. Fairlamb, H. 
       Flewelling, C.-C. Lin, E. Magnier.  1.8-m Ritchey-Chretien + CCD.
    L01 Visnjan Observatory, Tican.  Observer K. Korlevic.  1.0-m f/2.9 reflector + 
       CCD.
    
    Orbital elements:
    2019 WX1                                                 Earth MOID = 0.0163 AU
    Epoch 2020 May 31.0 TT = JDT 2459000.5                  Bell
    M 103.36845              (2000.0)            P               Q
    n   0.42115456     Peri.  131.17447     +0.74494439     +0.66711772
    a   1.7626864      Node   186.98299     -0.62022711     +0.69066817
    e   0.6354563      Incl.    1.61946     -0.24571566     +0.27916200
    P   2.34           H   22.2           G   0.15           U   8
    Residuals in seconds of arc
    191123 F51  0.1-  0.1-    191125 474  0.3-  0.0     191125 L01  0.1-  0.2-
    191123 F51  0.2-  0.1-    191125 474  0.3-  0.2+    191125 L01  0.1+  0.0
    191123 F51  0.2+  0.2+    191125 474  0.3-  0.1-    191125 104  0.1+  0.0
    191125 F51  0.1+  0.0     191125 474  0.7+  0.1-    191125 104  0.0   0.2-
    191125 F51  0.1+  0.1-    191125 L01  0.0   0.3+    191125 104  0.4-  0.2+
    191125 F51  0.0   0.0     191125 L01  0.4+  0.5+
    
    Ephemeris:
    2019 WX1                 a,e,i = 1.76, 0.64, 2                   q = 0.6426
    Date    TT    R. A. (2000) Decl.     Delta      r    Elong.  Phase     V
    2019 10 26    16 49 57.8 -23 07 14   0.3170  0.7875    41.9   122.5    24.2
    ...
    2019 11 10    19 47 29.0 -25 30 20   0.1767  0.9362    67.2   102.8    22.1
    ...
    2019 11 18    22 21 18.3 -16 41 16   0.1717  1.0209    96.0    74.4    21.0
    ...
    2019 11 24    23 46 45.9 -07 48 27   0.2085  1.0848   112.6    57.2    21.0
    2019 11 25    23 57 35.1 -06 32 26   0.2171  1.0955   114.6    55.0    21.1
    2019 11 26    00 07 34.8 -05 21 04   0.2262  1.1061   116.3    53.1    21.1
    ...
    2019 12 02    00 53 52.7 +00 18 08   0.2894  1.1696   123.1    44.9    21.6
    ...
    2019 12 10    01 32 52.2 +05 03 34   0.3887  1.2530   125.9    39.5    22.2
    ...
    2019 12 25    02 16 44.4 +10 05 24   0.6029  1.4039   122.7    36.1    23.3
    
    A. U. Tomatic                (C) Copyright 2019 MPC           M.P.E.C. 2019-W133
    


    Read MPEC 2019-W132 Read MPEC 2019-W134


    MPEC number:

    Enter an MPEC number in one of the following forms:

    • 1997-B01 (the full form)
    • J97B01 (the packed version of the full form)
    • B01 (the abbreviated form)